Regional Weather Roundup
Issued by NWS Jackson, KY

Home | Current Version | Previous Version | Text Only | Print | Product List | Glossary Off
Versions: 1 2 3 4 5 6 7 8 9 10 11 12 13 14 15 16 17 18 19 20 21 22 23 24 25 26 27 28 29 30 31 32 33 34 35 36 37 38 39 40 41 42 43 44 45 46 47 48 49 50

000
ASUS43 KJKL 251110
RWRJKL

EAST KENTUCKY HOURLY WEATHER ROUNDUP
NATIONAL WEATHER SERVICE JACKSON KY
700 AM EDT THU MAY 25 2017

NOTE: "FAIR" INDICATES FEW OR NO CLOUDS BELOW 12,000 FEET WITH
NO SIGNIFICANT WEATHER AND/OR OBSTRUCTIONS TO VISIBILITY.

* THESE REPORTS ARE NOT UNDER NWS QUALITY CONTROL AND MAY NOT
  REPORT WEATHER SUCH AS PRECIPITATION AND FOG.

KYZ079-080-083-085-087-088-110-112-115-119-120-251200
...EASTERN KENTUCKY...

CITY           SKY/WX    TMP DP  RH WIND       PRES   REMARKS
JACKSON        CLOUDY    54  50  86 VRB5      29.53R
LONDON         CLOUDY    53  49  86 SW12      29.56R FOG
SOMERSET*      CLOUDY    52  52 100 W12       29.57R FOG
MONTICELLO*    LGT RAIN  55  52  89 W17       29.59R
WILLIAMSBURG*  CLOUDY    54  52  94 SW7       29.57R
MIDDLESBORO*   CLOUDY    54  49  83 S6        29.60R
HARLAN APT*    CLOUDY    54  46  76 W3        29.58R
PIKE CO APT*   CLOUDY    55  49  82 S3        29.54R
BIG SANDY APT* CLOUDY    56  50  79 SW6       29.53R
MOREHEAD APT*  CLOUDY    55  52  88 S8G15     29.50R
ASHLAND*       CLOUDY    57  54  88 S5        29.46R
$$

KYZ035-036-041-042-044-050-067-078-099-251200
...CENTRAL KENTUCKY...

CITY           SKY/WX    TMP DP  RH WIND       PRES   REMARKS
MT STERLING*   CLOUDY    54  54 100 SW7       29.51R FOG
FLEMING/MASON* DRIZZLE   55  54  99 S10G16    29.47R
DANVILLE*      DRIZZLE   54  54 100 SW6       29.53R
LEXINGTON      HVY RAIN  57  54  89 SW8       29.48R FOG
FRANKFORT      LGT RAIN  57  53  86 W9        29.47R
LOUISVILLE     CLOUDY    59  56  89 W9        29.49R FOG
LEBANON*       CLOUDY    55  55 100 SW9       29.52R FOG
GLASGOW*       CLOUDY    55  55 100 W10       29.57R
BOWLING GREEN  CLOUDY    58  55  90 W9        29.59R
$$

KYZ091>093-OHZ055-061-077-WVZ005-015-034-035-042-251200
...SOUTHERN OHIO/WEST VIRGINIA...

CITY           SKY/WX    TMP DP  RH WIND       PRES   REMARKS
COVINGTON      LGT RAIN  57  56  96 SW8       29.39S FOG
COLUMBUS       CLOUDY    59  58  96 S7        29.40R
DAYTON         CLOUDY    58  57  97 SW6       29.39R
WILMINGTON     LGT RAIN  57  57 100 S8        29.40R FOG
HUNTINGTON     CLOUDY    57  51  80 SW7G17    29.49R
CHARLESTON     MOCLDY    57  51  80 S7        29.49R
PINEVILLE*     CLOUDY    54  53  94 MISG      29.59R
BECKLEY        CLOUDY    52  49  89 W7        29.54R
BLUEFIELD      MOCLDY    49  46  90 W10       29.57R
LOGAN CO APT*  CLOUDY    55  52  88 VRB5G12   29.53R
$$

VAZ002-007-008-TNZ017-027-036-066-071-251200
...SOUTHWEST VIRGINIA/EAST TENNESSEE...

CITY           SKY/WX    TMP DP  RH WIND       PRES   REMARKS
WISE*          CLOUDY    50  50 100 SW13      29.59R
JONESVILLE*      N/A     54  50  87 W5        29.62R
ABINGDON*      CLOUDY    54  52  94 W8        29.60R
BRISTOL        MOCLDY    51  49  92 SW6       29.61R
MORRISTOWN*    PTSUNNY   52  50  93 W8        29.61R
SEVIERVILLE*   MOSUNNY   52  46  82 SW6       29.62R
KNOXVILLE      CLOUDY    54  50  86 SW13      29.62R
LAFOLLETTE*    CLOUDY    52  50  93 CALM      29.63R
OAK RIDGE      CLOUDY    52  49  89 CALM      29.64R
CROSSVILLE     CLOUDY    51  49  92 SW9       29.63R
NASHVILLE      MOCLDY    55  51  86 SW6       29.64R
$$

...KEY TO REMARKS...
VSB - VISIBILITY IN MILES
WCI - WIND CHILL INDEX
HX  - HEAT INDEX

$$



USA.gov is the U.S. government's official web portal to all federal, state and local government web resources and services.